M I D A S
Marine Information and Data Acquisition System
Tripno 1454 of the Zeeleeuw from 2008-04-09 07:03:28 to 2008-04-09 10:24:47
Back to CruiseResearch ActivitiesStationsMapUnderway DataData graphs

EquipmentUnitsComments
TimeDGPSUTC
LatitudeDGPSDM.mWGS84
LongitudeDGPSDM.mWGS84
SpeedMeteo Stationm/sRelative wind speed
DirectionMeteo StationdegRelative wind direction
TemperatureMeteo Stationdeg CelciusAir temperature
PressureMeteo StationPaAtmospheric pressure
HumidityMeteo Station%Relative humidity
Missing or incorrect values are displayed as -999
Metereological data collected by the RV Zeeleeuw from 2008-04-09 07:06:11 to 2008-04-09 10:35:00
                                                                                    Next 1000 lines
Time Latitude Longitude Speed Direction Temperature Pressure Humidity
2008-04-09 07:06:21 51°13.663 2°55.95 0.3 343 6.3 100030 68
2008-04-09 07:06:26 51°13.664 2°55.947 0.3 355 6.3 100030 68
2008-04-09 07:06:31 51°13.664 2°55.943 0.4 41 6.3 100030 68
2008-04-09 07:06:37 51°13.666 2°55.938 0.6 41 6.3 100030 68
2008-04-09 07:06:42 51°13.667 2°55.932 0.7 45 6.3 100030 68
2008-04-09 07:06:48 51°13.669 2°55.926 0.8 78 6.3 100030 68
2008-04-09 07:06:54 51°13.672 2°55.918 0.8 37 6.3 100030 67
2008-04-09 07:06:59 51°13.674 2°55.911 1 73 6.3 100030 67
2008-04-09 07:07:05 51°13.677 2°55.902 1 26 6.3 100030 67
2008-04-09 07:07:10 51°13.68 2°55.894 1.2 78 6.3 100030 67
2008-04-09 07:07:15 51°13.682 2°55.886 1.3 35 6.3 100030 67
2008-04-09 07:07:20 51°13.685 2°55.877 1.4 82 6.3 100030 67
2008-04-09 07:07:25 51°13.687 2°55.869 1.7 20 6.3 100030 67
2008-04-09 07:07:30 51°13.69 2°55.86 1.7 78 6.3 100030 67
2008-04-09 07:07:35 51°13.693 2°55.852 1.6 29 6.2 100030 67
2008-04-09 07:07:40 51°13.696 2°55.843 1.5 78 6.2 100030 67
2008-04-09 07:07:45 51°13.699 2°55.834 1.9 21 6.2 100030 67
2008-04-09 07:07:50 51°13.703 2°55.825 1.7 78 6.2 100030 67
2008-04-09 07:07:55 51°13.706 2°55.815 1.7 31 6.2 100030 66
2008-04-09 07:08:00 51°13.71 2°55.806 1.6 73 6.2 100030 66
2008-04-09 07:08:05 51°13.714 2°55.797 1.4 32 6.1 100030 66
2008-04-09 07:08:10 51°13.718 2°55.787 1.7 81 6.1 100030 66
2008-04-09 07:08:15 51°13.722 2°55.778 1.4 38 6.1 100030 66
2008-04-09 07:08:20 51°13.727 2°55.768 1.9 80 6.1 100030 66
2008-04-09 07:08:25 51°13.731 2°55.758 1.7 30 6.1 100030 66
2008-04-09 07:08:30 51°13.736 2°55.749 1.9 78 6.1 100030 66
2008-04-09 07:08:35 51°13.74 2°55.74 1.7 26 6.1 100030 66
2008-04-09 07:08:40 51°13.745 2°55.731 1.9 79 6.1 100030 66
2008-04-09 07:08:45 51°13.75 2°55.722 1.7 37 6.1 100030 66
2008-04-09 07:08:50 51°13.755 2°55.713 1.1 81 6.1 100030 66
2008-04-09 07:08:55 51°13.761 2°55.705 1.3 24 6.1 100030 66
2008-04-09 07:09:00 51°13.767 2°55.697 1.1 75 6.1 100030 66
2008-04-09 07:09:05 51°13.773 2°55.689 1.8 19 6.1 100030 66
2008-04-09 07:09:10 51°13.779 2°55.682 1.4 80 6.1 100030 66
2008-04-09 07:09:15 51°13.785 2°55.675 1 27 6.1 100030 67
2008-04-09 07:09:20 51°13.791 2°55.668 1.4 78 6.1 100030 67
2008-04-09 07:09:25 51°13.798 2°55.661 1.5 24 6.1 100030 67
2008-04-09 07:09:30 51°13.804 2°55.655 1.7 77 6.1 100030 67
2008-04-09 07:09:35 51°13.811 2°55.649 1.7 35 6.1 100030 67
2008-04-09 07:09:40 51°13.818 2°55.643 1.4 78 6.1 100030 67
2008-04-09 07:09:45 51°13.825 2°55.637 1.3 25 6.1 100030 67
2008-04-09 07:09:50 51°13.832 2°55.632 1.6 79 6.1 100030 67
2008-04-09 07:09:55 51°13.839 2°55.628 2 35 6.2 100030 67
2008-04-09 07:10:00 51°13.846 2°55.624 1.7 79 6.2 100030 67
2008-04-09 07:10:05 51°13.854 2°55.621 1.6 18 6.1 100030 67
2008-04-09 07:10:10 51°13.861 2°55.618 1.2 74 6.1 100030 67
2008-04-09 07:10:15 51°13.868 2°55.616 1.5 34 6.2 100030 67
2008-04-09 07:10:20 51°13.875 2°55.615 1.5 75 6.2 100030 67
2008-04-09 07:10:25 51°13.883 2°55.615 1.6 37 6.2 100030 67
2008-04-09 07:10:30 51°13.89 2°55.616 1.5 82 6.2 100030 67
2008-04-09 07:10:35 51°13.897 2°55.617 1.2 26 6.2 100030 67
2008-04-09 07:10:40 51°13.904 2°55.619 1.5 80 6.2 100030 67
2008-04-09 07:10:45 51°13.91 2°55.622 1.2 33 6.2 100030 67
2008-04-09 07:10:50 51°13.916 2°55.625 1.2 76 6.2 100030 67
2008-04-09 07:10:55 51°13.921 2°55.627 0.8 25 6.2 100020 67
2008-04-09 07:11:00 51°13.927 2°55.63 1.5 72 6.2 100020 67
2008-04-09 07:11:05 51°13.932 2°55.633 1.3 36 6.2 100030 67
2008-04-09 07:11:10 51°13.936 2°55.636 1.4 80 6.2 100030 67
2008-04-09 07:11:15 51°13.941 2°55.639 1.4 20 6.2 100020 67
2008-04-09 07:11:20 51°13.945 2°55.642 1.2 73 6.2 100020 67
2008-04-09 07:11:25 51°13.948 2°55.645 1.2 19 6.3 100030 67
2008-04-09 07:11:30 51°13.952 2°55.647 1.1 78 6.3 100030 67
2008-04-09 07:11:35 51°13.955 2°55.65 1.1 32 6.2 100030 66
2008-04-09 07:11:40 51°13.957 2°55.653 1 74 6.2 100030 66
2008-04-09 07:11:45 51°13.96 2°55.655 1.1 23 6.2 100030 65
2008-04-09 07:11:50 51°13.962 2°55.656 1.1 78 6.2 100030 65
2008-04-09 07:11:55 51°13.963 2°55.657 0.8 37 6.2 100020 65
2008-04-09 07:12:00 51°13.963 2°55.656 0.5 81 6.2 100020 65
2008-04-09 07:12:05 51°13.963 2°55.654 0.3 20 6.2 100030 65
2008-04-09 07:12:10 51°13.963 2°55.651 0.2 82 6.2 100030 65
2008-04-09 07:12:15 51°13.964 2°55.648 0.2 33 6.2 100020 65
2008-04-09 07:12:20 51°13.964 2°55.644 0.1 74 6.2 100020 65
2008-04-09 07:12:25 51°13.965 2°55.639 0.3 250 6.2 100020 65
2008-04-09 07:12:30 51°13.966 2°55.633 0.7 284 6.2 100020 65
2008-04-09 07:12:35 51°13.968 2°55.626 0.9 325 6.2 100020 65
2008-04-09 07:12:40 51°13.97 2°55.619 1.2 282 6.2 100020 65
2008-04-09 07:12:45 51°13.973 2°55.611 1.1 327 6.2 100020 65
2008-04-09 07:12:50 51°13.976 2°55.602 1.5 286 6.2 100020 65
2008-04-09 07:12:55 51°13.979 2°55.593 1.7 336 6.3 100020 66
2008-04-09 07:13:00 51°13.983 2°55.584 1.8 285 6.3 100020 66
2008-04-09 07:13:05 51°13.988 2°55.574 1.9 334 6.2 100020 66
2008-04-09 07:13:10 51°13.993 2°55.564 2.3 283 6.2 100020 66
2008-04-09 07:13:15 51°13.998 2°55.553 2.4 332 6.2 100020 65
2008-04-09 07:13:20 51°14.004 2°55.543 2.7 279 6.2 100020 65
2008-04-09 07:13:25 51°14.01 2°55.533 2.7 333 6.2 100020 65
2008-04-09 07:13:30 51°14.017 2°55.522 2.5 281 6.2 100020 65
2008-04-09 07:13:35 51°14.025 2°55.512 2.6 331 6.2 100020 64
2008-04-09 07:13:40 51°14.032 2°55.503 2.7 285 6.2 100020 64
2008-04-09 07:13:45 51°14.041 2°55.494 2.6 333 6.2 100030 64
2008-04-09 07:13:50 51°14.049 2°55.485 3 280 6.2 100030 64
2008-04-09 07:13:55 51°14.057 2°55.476 2.8 334 6.2 100020 64
2008-04-09 07:14:00 51°14.066 2°55.467 3 280 6.2 100020 64
2008-04-09 07:14:05 51°14.075 2°55.458 2.8 332 6.2 100020 64
2008-04-09 07:14:10 51°14.084 2°55.448 3.2 280 6.2 100020 64
2008-04-09 07:14:15 51°14.093 2°55.439 2.8 333 6.2 100020 64
2008-04-09 07:14:20 51°14.102 2°55.431 2.9 281 6.2 100020 64
2008-04-09 07:14:25 51°14.112 2°55.422 2.9 331 6.2 100020 65
2008-04-09 07:14:30 51°14.121 2°55.414 2.9 282 6.2 100020 65
2008-04-09 07:14:35 51°14.131 2°55.406 3.2 333 6.2 100020 65
2008-04-09 07:14:40 51°14.14 2°55.398 3.2 285 6.2 100020 65
2008-04-09 07:14:45 51°14.15 2°55.389 3.3 332 6.2 100020 65
2008-04-09 07:14:50 51°14.159 2°55.38 3.4 279 6.2 100020 65
2008-04-09 07:14:55 51°14.169 2°55.371 3.4 331 6.2 100020 65
2008-04-09 07:15:00 51°14.178 2°55.362 3.4 281 6.2 100020 65
2008-04-09 07:15:05 51°14.187 2°55.353 3.3 331 6.2 100020 65
2008-04-09 07:15:10 51°14.196 2°55.343 3.3 283 6.2 100020 65
2008-04-09 07:15:15 51°14.205 2°55.332 3.1 330 6.1 100020 65
2008-04-09 07:15:20 51°14.214 2°55.322 3.3 282 6.1 100020 65
2008-04-09 07:15:25 51°14.223 2°55.311 3.4 330 6.1 100020 65
2008-04-09 07:15:30 51°14.231 2°55.3 3.2 285 6.1 100020 65
2008-04-09 07:15:35 51°14.24 2°55.288 3.2 331 6.1 100020 65
2008-04-09 07:15:40 51°14.248 2°55.276 3.5 280 6.1 100020 65
2008-04-09 07:15:45 51°14.256 2°55.264 3.4 334 6.1 100020 65
2008-04-09 07:15:50 51°14.264 2°55.251 3.3 278 6.1 100020 65
2008-04-09 07:15:55 51°14.271 2°55.239 2.9 331 6.1 100020 65
2008-04-09 07:16:00 51°14.279 2°55.226 3.3 280 6.1 100020 65
2008-04-09 07:16:04 51°14.285 2°55.216 3.3 332 6.1 100020 65
2008-04-09 07:16:09 51°14.293 2°55.203 3.4 279 6.1 100020 65
2008-04-09 07:16:14 51°14.3 2°55.189 3.3 332 6.2 100020 65
2008-04-09 07:16:19 51°14.307 2°55.176 2.8 285 6.2 100020 65
2008-04-09 07:16:24 51°14.315 2°55.162 3.3 332 6.1 100020 65
2008-04-09 07:16:29 51°14.322 2°55.148 3.4 281 6.1 100020 65
2008-04-09 07:16:34 51°14.329 2°55.133 3.1 331 6.1 100020 65
2008-04-09 07:16:38 51°14.334 2°55.121 3.3 286 6.1 100020 65
2008-04-09 07:16:43 51°14.341 2°55.106 3 332 6.1 100020 65
2008-04-09 07:16:48 51°14.348 2°55.091 3.2 282 6.1 100020 65
2008-04-09 07:16:53 51°14.355 2°55.075 3.7 331 6.2 100020 65
2008-04-09 07:16:58 51°14.363 2°55.058 4 280 6.2 100020 65
2008-04-09 07:17:02 51°14.369 2°55.044 4 332 6.1 100020 65
2008-04-09 07:17:07 51°14.376 2°55.025 4 281 6.1 100020 65
2008-04-09 07:17:12 51°14.384 2°55.006 3.6 329 6.1 100020 65
2008-04-09 07:17:17 51°14.392 2°54.987 3.9 280 6.1 100020 65
2008-04-09 07:17:22 51°14.399 2°54.967 4.5 330 6.1 100020 65
2008-04-09 07:17:27 51°14.407 2°54.948 4.4 286 6.1 100020 65
2008-04-09 07:17:31 51°14.413 2°54.932 4.5 330 6.1 100020 65
2008-04-09 07:17:36 51°14.423 2°54.913 4.3 282 6.1 100020 65
2008-04-09 07:17:41 51°14.433 2°54.895 4.7 330 6.1 100020 65
2008-04-09 07:17:46 51°14.443 2°54.879 4.6 285 6.1 100020 65
2008-04-09 07:17:51 51°14.455 2°54.863 4.8 331 6.2 100020 65
2008-04-09 07:17:57 51°14.469 2°54.847 4.7 287 6.2 100020 65
2008-04-09 07:18:02 51°14.482 2°54.833 4.2 332 6.2 100020 65
2008-04-09 07:18:06 51°14.492 2°54.824 4.8 280 6.2 100020 65
2008-04-09 07:18:11 51°14.505 2°54.813 4.6 330 6.2 100020 65
2008-04-09 07:18:16 51°14.519 2°54.803 5 280 6.2 100020 65
2008-04-09 07:18:22 51°14.535 2°54.791 4.5 330 6.2 100020 65
2008-04-09 07:18:26 51°14.546 2°54.784 4.9 281 6.2 100020 65
2008-04-09 07:18:31 51°14.56 2°54.777 4.8 332 6.2 100020 65
2008-04-09 07:18:37 51°14.577 2°54.769 4.6 280 6.2 100020 65
2008-04-09 07:18:42 51°14.591 2°54.764 4.4 331 6.2 100020 65
2008-04-09 07:18:46 51°14.602 2°54.76 4.4 279 6.2 100020 65
2008-04-09 07:18:51 51°14.616 2°54.756 4.8 333 6.2 100020 65
2008-04-09 07:18:57 51°14.634 2°54.752 4.4 286 6.2 100020 65
2008-04-09 07:19:02 51°14.648 2°54.75 4.8 333 6.2 100020 65
2008-04-09 07:19:06 51°14.659 2°54.749 4.9 284 6.2 100020 65
2008-04-09 07:19:11 51°14.673 2°54.749 4.6 332 6.2 100020 65
2008-04-09 07:19:16 51°14.687 2°54.75 4.9 281 6.2 100020 65
2008-04-09 07:19:22 51°14.704 2°54.751 4.8 334 6.3 100030 66
2008-04-09 07:19:26 51°14.715 2°54.753 4.6 280 6.3 100030 66
2008-04-09 07:19:31 51°14.73 2°54.755 5.1 333 6.3 100020 66
2008-04-09 07:19:37 51°14.746 2°54.757 4.6 287 6.3 100020 66
2008-04-09 07:19:41 51°14.757 2°54.759 4.6 334 6.3 100020 66
2008-04-09 07:19:46 51°14.771 2°54.761 5.2 280 6.3 100020 66
2008-04-09 07:19:51 51°14.785 2°54.762 4.4 333 6.3 100020 66
2008-04-09 07:19:56 51°14.799 2°54.763 4.5 282 6.3 100020 66
2008-04-09 07:20:02 51°14.816 2°54.764 4.4 334 6.3 100020 66
2008-04-09 07:20:06 51°14.828 2°54.764 4.9 282 6.3 100020 66
2008-04-09 07:20:11 51°14.842 2°54.765 4.3 334 6.3 100020 66
2008-04-09 07:20:17 51°14.858 2°54.766 4.5 282 6.3 100020 66
2008-04-09 07:20:22 51°14.873 2°54.767 5 335 6.4 100020 66
2008-04-09 07:20:26 51°14.884 2°54.767 4.9 282 6.4 100020 66
2008-04-09 07:20:31 51°14.898 2°54.768 4.8 335 6.4 100020 66
2008-04-09 07:20:36 51°14.912 2°54.769 4.2 280 6.4 100020 66
2008-04-09 07:20:41 51°14.925 2°54.77 4.2 334 6.4 100020 66
2008-04-09 07:20:46 51°14.939 2°54.771 4.8 281 6.4 100020 66
2008-04-09 07:20:51 51°14.953 2°54.772 4.8 334 6.4 100020 65
2008-04-09 07:20:56 51°14.967 2°54.774 4.2 286 6.4 100020 65
2008-04-09 07:21:01 51°14.981 2°54.775 4.4 335 6.4 100020 65
2008-04-09 07:21:06 51°14.995 2°54.776 4.3 286 6.4 100020 65
2008-04-09 07:21:11 51°15.009 2°54.777 4.3 336 6.4 100020 65
2008-04-09 07:21:16 51°15.023 2°54.778 4.3 281 6.4 100020 65
2008-04-09 07:21:21 51°15.037 2°54.779 4.6 335 6.4 100020 66
2008-04-09 07:21:26 51°15.051 2°54.781 4.8 279 6.4 100020 66
2008-04-09 07:21:31 51°15.065 2°54.782 4.3 335 6.5 100020 65
2008-04-09 07:21:36 51°15.079 2°54.783 4.3 286 6.5 100020 65
2008-04-09 07:21:41 51°15.092 2°54.785 4.4 335 6.5 100020 65
2008-04-09 07:21:46 51°15.106 2°54.786 4.9 281 6.5 100020 65
2008-04-09 07:21:51 51°15.12 2°54.788 4.3 336 6.5 100020 65
2008-04-09 07:21:56 51°15.134 2°54.79 4.6 280 6.5 100020 65
2008-04-09 07:22:01 51°15.147 2°54.794 4.3 334 6.5 100020 65
2008-04-09 07:22:06 51°15.161 2°54.796 4.3 283 6.5 100020 65
2008-04-09 07:22:11 51°15.175 2°54.799 4.9 334 6.5 100020 65
2008-04-09 07:22:16 51°15.188 2°54.802 4.2 285 6.5 100020 65
2008-04-09 07:22:21 51°15.202 2°54.806 4.8 335 6.5 100020 65
2008-04-09 07:22:26 51°15.216 2°54.809 4.6 283 6.5 100020 65
2008-04-09 07:22:31 51°15.229 2°54.812 4.5 336 6.6 100020 65
2008-04-09 07:22:36 51°15.243 2°54.816 4.9 285 6.6 100020 65
2008-04-09 07:22:41 51°15.256 2°54.822 4.4 335 6.6 100020 65
2008-04-09 07:22:46 51°15.269 2°54.828 4.6 281 6.6 100020 65
2008-04-09 07:22:51 51°15.282 2°54.835 4.4 336 6.6 100020 65
2008-04-09 07:22:56 51°15.295 2°54.841 5.3 285 6.6 100020 65
2008-04-09 07:23:01 51°15.308 2°54.848 4.9 336 6.6 100020 65
2008-04-09 07:23:06 51°15.321 2°54.855 4.5 283 6.6 100020 65
2008-04-09 07:23:11 51°15.334 2°54.863 4.5 335 6.7 100020 65
2008-04-09 07:23:16 51°15.346 2°54.871 5.2 279 6.7 100020 65
2008-04-09 07:23:21 51°15.359 2°54.881 5 336 6.7 100020 65
2008-04-09 07:23:26 51°15.371 2°54.89 4.5 281 6.7 100020 65
2008-04-09 07:23:31 51°15.383 2°54.9 5 338 6.7 100020 65
2008-04-09 07:23:36 51°15.395 2°54.911 5.3 280 6.7 100020 65
2008-04-09 07:23:41 51°15.406 2°54.921 5.3 337 6.7 100020 65
2008-04-09 07:23:46 51°15.418 2°54.932 4.7 286 6.7 100020 65
2008-04-09 07:23:51 51°15.43 2°54.943 5.1 338 6.7 100020 65
2008-04-09 07:23:56 51°15.442 2°54.953 4.5 285 6.7 100020 65
2008-04-09 07:24:01 51°15.453 2°54.964 4.8 336 6.8 100020 65
2008-04-09 07:24:06 51°15.465 2°54.975 4.8 280 6.8 100020 65
2008-04-09 07:24:11 51°15.477 2°54.985 5.2 336 6.8 100020 65
2008-04-09 07:24:16 51°15.489 2°54.996 4.7 280 6.8 100020 65
2008-04-09 07:24:21 51°15.501 2°55.006 4.8 337 6.8 100020 65
2008-04-09 07:24:26 51°15.513 2°55.017 4.7 279 6.8 100020 65
2008-04-09 07:24:31 51°15.524 2°55.028 5.5 337 6.9 100020 65
2008-04-09 07:24:36 51°15.536 2°55.039 4.6 280 6.9 100020 65
2008-04-09 07:24:41 51°15.548 2°55.049 5.1 336 6.9 100020 65
2008-04-09 07:24:46 51°15.56 2°55.059 4.6 281 6.9 100020 65
2008-04-09 07:24:51 51°15.572 2°55.07 4.7 336 6.9 100020 65
2008-04-09 07:24:56 51°15.584 2°55.081 4.6 282 6.9 100020 65
2008-04-09 07:25:01 51°15.595 2°55.092 4.7 338 6.9 100020 65
2008-04-09 07:25:06 51°15.607 2°55.103 5.4 280 6.9 100020 65
2008-04-09 07:25:11 51°15.619 2°55.113 5.3 338 6.9 100020 65
2008-04-09 07:25:16 51°15.63 2°55.124 5 280 6.9 100020 65
2008-04-09 07:25:21 51°15.643 2°55.134 4.5 337 7 100020 65
2008-04-09 07:25:26 51°15.655 2°55.144 5.3 282 7 100020 65
2008-04-09 07:25:31 51°15.667 2°55.154 5.1 338 6.9 100020 64
2008-04-09 07:25:36 51°15.679 2°55.163 4.4 285 6.9 100020 64
2008-04-09 07:25:41 51°15.691 2°55.173 4.7 336 7 100020 64
2008-04-09 07:25:46 51°15.703 2°55.183 4.5 284 7 100020 64
2008-04-09 07:25:51 51°15.715 2°55.193 4.8 337 7 100020 64
2008-04-09 07:25:56 51°15.727 2°55.202 4.5 279 7 100020 64
2008-04-09 07:26:01 51°15.739 2°55.212 5.3 338 7 100020 64
2008-04-09 07:26:06 51°15.751 2°55.222 5.3 285 7 100020 64
2008-04-09 07:26:11 51°15.763 2°55.231 5.2 337 7 100020 64
2008-04-09 07:26:16 51°15.775 2°55.241 5.4 287 7 100020 64
2008-04-09 07:26:21 51°15.787 2°55.251 4.7 337 7 100020 64
2008-04-09 07:26:26 51°15.799 2°55.26 4.6 280 7 100020 64
2008-04-09 07:26:31 51°15.811 2°55.27 4.7 338 7 100020 64
2008-04-09 07:26:36 51°15.823 2°55.279 4.7 285 7 100020 64
2008-04-09 07:26:41 51°15.836 2°55.289 4.5 336 7 100020 64
2008-04-09 07:26:46 51°15.848 2°55.299 4.8 286 7 100020 64
2008-04-09 07:26:51 51°15.86 2°55.308 5.1 337 7 100020 63
2008-04-09 07:26:56 51°15.872 2°55.318 5.1 285 7 100020 63
2008-04-09 07:27:01 51°15.884 2°55.327 5.2 338 7.1 100020 63
2008-04-09 07:27:06 51°15.896 2°55.337 5.3 280 7.1 100020 63
2008-04-09 07:27:11 51°15.908 2°55.346 4.8 338 7.1 100020 63
2008-04-09 07:27:16 51°15.921 2°55.355 4.8 279 7.1 100020 63
2008-04-09 07:27:21 51°15.933 2°55.364 5.5 338 7.1 100020 63
2008-04-09 07:27:26 51°15.945 2°55.374 4.8 281 7.1 100020 63
2008-04-09 07:27:31 51°15.957 2°55.383 5.4 339 7.1 100020 63
2008-04-09 07:27:36 51°15.969 2°55.392 4.8 280 7.1 100020 63
2008-04-09 07:27:41 51°15.981 2°55.402 5.7 340 7.1 100020 63
2008-04-09 07:27:46 51°15.994 2°55.411 4.8 286 7.1 100020 63
2008-04-09 07:27:51 51°16.006 2°55.42 5.4 339 7.1 100020 63
2008-04-09 07:27:56 51°16.018 2°55.429 5.3 282 7.1 100020 63
2008-04-09 07:28:01 51°16.03 2°55.439 5.3 338 7.1 100010 63
2008-04-09 07:28:06 51°16.043 2°55.448 5.4 279 7.1 100010 63
2008-04-09 07:28:11 51°16.055 2°55.457 5.3 338 7.1 100010 63
2008-04-09 07:28:16 51°16.067 2°55.466 5.6 285 7.1 100010 63
2008-04-09 07:28:21 51°16.079 2°55.475 4.9 338 7.1 100020 63
2008-04-09 07:28:26 51°16.091 2°55.484 5.4 283 7.1 100020 63
2008-04-09 07:28:31 51°16.103 2°55.493 5.2 338 7.1 100020 63
2008-04-09 07:28:36 51°16.116 2°55.503 4.4 281 7.1 100020 63
2008-04-09 07:28:41 51°16.128 2°55.512 4.7 339 7.1 100020 63
2008-04-09 07:28:46 51°16.14 2°55.521 4.6 281 7.1 100020 63
2008-04-09 07:28:51 51°16.152 2°55.53 4.6 339 7.1 100010 63
2008-04-09 07:28:56 51°16.164 2°55.539 4.6 285 7.1 100010 63
2008-04-09 07:29:01 51°16.176 2°55.548 4.6 338 7.1 100020 63
2008-04-09 07:29:06 51°16.189 2°55.557 5.3 284 7.1 100020 63
2008-04-09 07:29:11 51°16.201 2°55.566 5.2 339 7.1 100020 63
2008-04-09 07:29:16 51°16.213 2°55.576 5.2 280 7.1 100020 63
2008-04-09 07:29:21 51°16.225 2°55.586 4.9 339 7.1 100020 63
2008-04-09 07:29:26 51°16.236 2°55.596 4.6 285 7.1 100020 63
2008-04-09 07:29:31 51°16.248 2°55.605 5.4 338 7.1 100020 63
2008-04-09 07:29:36 51°16.26 2°55.615 4.5 286 7.1 100020 63
2008-04-09 07:29:41 51°16.272 2°55.625 4.7 339 7.1 100020 63
2008-04-09 07:29:46 51°16.284 2°55.635 5.2 281 7.1 100020 63
2008-04-09 07:29:51 51°16.296 2°55.644 5.4 339 7.1 100020 62
2008-04-09 07:29:56 51°16.308 2°55.654 4.4 280 7.1 100020 62
2008-04-09 07:30:01 51°16.319 2°55.663 4.5 339 7.1 100010 62
2008-04-09 07:30:06 51°16.331 2°55.673 4.5 279 7.1 100010 62
2008-04-09 07:30:11 51°16.343 2°55.682 5.1 338 7.1 100020 62
2008-04-09 07:30:16 51°16.355 2°55.692 4.7 286 7.1 100020 62
2008-04-09 07:30:21 51°16.367 2°55.701 5.2 338 7.1 100010 62
2008-04-09 07:30:26 51°16.379 2°55.71 4.5 286 7.1 100010 62
2008-04-09 07:30:31 51°16.391 2°55.72 5 339 7.1 100020 62
2008-04-09 07:30:36 51°16.403 2°55.729 4.5 281 7.1 100020 62
2008-04-09 07:30:41 51°16.414 2°55.739 4.6 340 7.1 100010 62
2008-04-09 07:30:46 51°16.426 2°55.748 5.4 286 7.1 100010 62
2008-04-09 07:30:51 51°16.438 2°55.758 4.3 339 7.1 100020 62
2008-04-09 07:30:56 51°16.45 2°55.767 4.9 280 7.1 100020 62
2008-04-09 07:31:01 51°16.462 2°55.776 4.5 338 7.1 100010 62
2008-04-09 07:31:06 51°16.474 2°55.786 5.1 281 7.1 100010 62
2008-04-09 07:31:11 51°16.486 2°55.795 4.4 338 7.1 100020 62
2008-04-09 07:31:16 51°16.497 2°55.805 5 279 7.1 100020 62
2008-04-09 07:31:21 51°16.509 2°55.814 4.8 339 7.1 100020 62
2008-04-09 07:31:26 51°16.521 2°55.823 5 285 7.1 100020 62
2008-04-09 07:31:31 51°16.533 2°55.832 5.4 341 7.1 100020 62
2008-04-09 07:31:36 51°16.545 2°55.843 5 280 7.1 100020 62
2008-04-09 07:31:41 51°16.556 2°55.853 4.6 339 7.1 100010 62
2008-04-09 07:31:46 51°16.568 2°55.863 4.5 284 7.1 100010 62
2008-04-09 07:31:51 51°16.579 2°55.874 5.2 340 7.1 100020 62
2008-04-09 07:31:56 51°16.59 2°55.884 5.4 285 7.1 100020 62
2008-04-09 07:32:01 51°16.602 2°55.895 5.1 339 7.1 100020 62
2008-04-09 07:32:06 51°16.613 2°55.906 4.4 283 7.1 100020 62
2008-04-09 07:32:11 51°16.625 2°55.916 5.2 339 7.1 100020 62
2008-04-09 07:32:16 51°16.636 2°55.927 4.4 280 7.1 100020 62
2008-04-09 07:32:21 51°16.647 2°55.937 5.3 339 7.1 100020 62
2008-04-09 07:32:26 51°16.659 2°55.948 5.3 280 7.1 100020 62
2008-04-09 07:32:31 51°16.67 2°55.958 4.5 339 7 100020 62
2008-04-09 07:32:36 51°16.682 2°55.969 4.6 282 7 100020 62
2008-04-09 07:32:41 51°16.693 2°55.979 5.1 340 7 100020 62
2008-04-09 07:32:46 51°16.704 2°55.989 5 280 7 100020 62
2008-04-09 07:32:51 51°16.716 2°56 5.1 339 7 100010 62
2008-04-09 07:32:56 51°16.727 2°56.01 4.6 285 7 100010 62
2008-04-09 07:33:01 51°16.739 2°56.021 5.1 338 7 100020 63
2008-04-09 07:33:06 51°16.75 2°56.032 4.5 284 7 100020 63
2008-04-09 07:33:11 51°16.761 2°56.043 4.6 338 7 100020 63
2008-04-09 07:33:16 51°16.772 2°56.053 4.7 286 7 100020 63
2008-04-09 07:33:21 51°16.784 2°56.064 4.6 338 7 100020 63
2008-04-09 07:33:26 51°16.795 2°56.075 4.6 281 7 100020 63
2008-04-09 07:33:31 51°16.806 2°56.085 5.1 339 7 100020 63
2008-04-09 07:33:36 51°16.818 2°56.095 5.4 279 7 100020 63
2008-04-09 07:33:41 51°16.829 2°56.106 5.3 339 7 100020 63
2008-04-09 07:33:46 51°16.841 2°56.116 4.5 285 7 100020 63
2008-04-09 07:33:51 51°16.852 2°56.127 5.3 338 7 100020 63
2008-04-09 07:33:56 51°16.863 2°56.137 4.9 282 7 100020 63
2008-04-09 07:34:01 51°16.875 2°56.148 4.7 341 7 100020 63
2008-04-09 07:34:06 51°16.886 2°56.159 4.5 287 7 100020 63
2008-04-09 07:34:11 51°16.897 2°56.17 5.2 340 7 100020 62
2008-04-09 07:34:16 51°16.909 2°56.181 5.4 286 7 100020 62
2008-04-09 07:34:21 51°16.92 2°56.191 5.2 340 6.9 100020 62
2008-04-09 07:34:26 51°16.932 2°56.202 4.7 280 6.9 100020 62
2008-04-09 07:34:31 51°16.943 2°56.212 5.7 339 6.9 100020 62
2008-04-09 07:34:36 51°16.955 2°56.223 4.7 285 6.9 100020 62
2008-04-09 07:34:41 51°16.966 2°56.233 5.2 340 6.9 100010 62
2008-04-09 07:34:46 51°16.977 2°56.245 4.9 280 6.9 100010 62
2008-04-09 07:34:51 51°16.988 2°56.256 5.5 340 6.8 100020 62
2008-04-09 07:34:56 51°16.999 2°56.268 5.4 286 6.8 100020 62
2008-04-09 07:35:01 51°17.01 2°56.281 4.8 341 6.8 100010 62
2008-04-09 07:35:06 51°17.021 2°56.293 4.9 284 6.8 100010 62
2008-04-09 07:35:11 51°17.032 2°56.306 4.8 340 6.8 100020 62
2008-04-09 07:35:16 51°17.043 2°56.318 5.8 281 6.8 100020 62
2008-04-09 07:35:21 51°17.054 2°56.33 5.7 341 6.7 100010 62
2008-04-09 07:35:26 51°17.065 2°56.343 5.6 280 6.7 100010 62
2008-04-09 07:35:31 51°17.076 2°56.355 5 340 6.7 100020 62
2008-04-09 07:35:36 51°17.088 2°56.367 5.1 285 6.7 100020 62
2008-04-09 07:35:41 51°17.099 2°56.379 5.7 340 6.7 100020 62
2008-04-09 07:35:46 51°17.11 2°56.391 4.9 281 6.7 100020 62
2008-04-09 07:35:51 51°17.121 2°56.403 4.9 342 6.7 100020 63
2008-04-09 07:35:56 51°17.132 2°56.416 5.4 286 6.7 100020 63
2008-04-09 07:36:01 51°17.144 2°56.428 5 340 6.7 100010 64
2008-04-09 07:36:06 51°17.155 2°56.441 5.6 280 6.7 100010 64
2008-04-09 07:36:11 51°17.165 2°56.454 5.2 340 6.7 100010 64
2008-04-09 07:36:16 51°17.176 2°56.467 5.7 284 6.7 100010 64
2008-04-09 07:36:21 51°17.187 2°56.48 5.2 340 6.6 100020 64
2008-04-09 07:36:26 51°17.198 2°56.493 4.9 283 6.6 100020 64
2008-04-09 07:36:31 51°17.209 2°56.505 5.7 341 6.6 100010 65
2008-04-09 07:36:36 51°17.219 2°56.519 5.4 280 6.6 100010 65
2008-04-09 07:36:41 51°17.23 2°56.531 5 341 6.6 100010 65
2008-04-09 07:36:46 51°17.241 2°56.544 5.4 279 6.6 100010 65
2008-04-09 07:36:51 51°17.252 2°56.556 4.8 339 6.6 100020 65
2008-04-09 07:36:56 51°17.263 2°56.569 5.2 281 6.6 100020 65
2008-04-09 07:37:01 51°17.275 2°56.582 5.6 341 6.6 100020 64
2008-04-09 07:37:06 51°17.286 2°56.594 5.5 280 6.6 100020 64
2008-04-09 07:37:11 51°17.297 2°56.606 4.7 340 6.5 100010 64
2008-04-09 07:37:16 51°17.308 2°56.618 5.6 280 6.5 100010 64
2008-04-09 07:37:21 51°17.32 2°56.63 4.8 340 6.5 100010 64
2008-04-09 07:37:26 51°17.331 2°56.641 5.7 280 6.5 100010 64
2008-04-09 07:37:31 51°17.343 2°56.652 5 340 6.5 100020 64
2008-04-09 07:37:36 51°17.355 2°56.664 5.5 280 6.5 100020 64
2008-04-09 07:37:41 51°17.366 2°56.675 4.7 340 6.5 100020 64
2008-04-09 07:37:46 51°17.378 2°56.685 5.4 280 6.5 100020 64
2008-04-09 07:37:51 51°17.389 2°56.697 5 341 6.5 100020 65
2008-04-09 07:37:56 51°17.401 2°56.707 5.6 279 6.5 100020 65
2008-04-09 07:38:01 51°17.413 2°56.718 4.7 339 6.5 100020 65
2008-04-09 07:38:06 51°17.425 2°56.729 5.4 286 6.5 100020 65
2008-04-09 07:38:11 51°17.436 2°56.74 5.3 341 6.5 100010 65
2008-04-09 07:38:16 51°17.448 2°56.751 5.3 280 6.5 100010 65
2008-04-09 07:38:21 51°17.46 2°56.761 5.2 339 6.5 100020 65
2008-04-09 07:38:26 51°17.471 2°56.772 5.4 280 6.5 100020 65
2008-04-09 07:38:31 51°17.483 2°56.783 4.8 338 6.5 100020 65
2008-04-09 07:38:36 51°17.495 2°56.793 4.5 286 6.5 100020 65
2008-04-09 07:38:41 51°17.507 2°56.804 4.6 339 6.5 100020 64
2008-04-09 07:38:46 51°17.518 2°56.815 5.4 280 6.5 100020 64
2008-04-09 07:38:51 51°17.53 2°56.826 5.3 339 6.5 100010 64
2008-04-09 07:38:56 51°17.542 2°56.837 4.8 284 6.5 100010 64
2008-04-09 07:39:01 51°17.553 2°56.847 5.5 339 6.5 100010 65
2008-04-09 07:39:06 51°17.565 2°56.858 4.8 281 6.5 100010 65
2008-04-09 07:39:11 51°17.577 2°56.868 5.4 339 6.5 100010 65
2008-04-09 07:39:16 51°17.588 2°56.879 5.5 285 6.5 100010 65
2008-04-09 07:39:21 51°17.6 2°56.89 4.7 339 6.5 100010 65
2008-04-09 07:39:26 51°17.611 2°56.901 5.4 280 6.5 100010 65
2008-04-09 07:39:31 51°17.623 2°56.911 5.4 339 6.5 100020 65
2008-04-09 07:39:36 51°17.634 2°56.922 5.3 279 6.5 100020 65
2008-04-09 07:39:41 51°17.646 2°56.933 5.3 339 6.5 100010 65
2008-04-09 07:39:46 51°17.657 2°56.944 5.3 279 6.5 100010 65
2008-04-09 07:39:51 51°17.668 2°56.955 5.1 338 6.5 100010 65
2008-04-09 07:39:56 51°17.68 2°56.966 5.4 280 6.5 100010 65
2008-04-09 07:40:01 51°17.691 2°56.977 4.5 340 6.5 100010 65
2008-04-09 07:40:06 51°17.703 2°56.987 4.7 279 6.5 100010 65
2008-04-09 07:40:11 51°17.715 2°56.998 4.5 338 6.5 100010 65
2008-04-09 07:40:16 51°17.726 2°57.008 4.6 280 6.5 100010 65
2008-04-09 07:40:21 51°17.737 2°57.018 4.7 339 6.5 100010 65
2008-04-09 07:40:26 51°17.747 2°57.027 4.4 281 6.5 100010 65
2008-04-09 07:40:31 51°17.756 2°57.035 3.5 342 6.5 100010 66
2008-04-09 07:40:36 51°17.765 2°57.043 3.8 280 6.5 100010 66
2008-04-09 07:40:41 51°17.772 2°57.05 3.6 343 6.5 100010 66
2008-04-09 07:40:46 51°17.78 2°57.057 2.9 283 6.5 100010 66
2008-04-09 07:40:51 51°17.786 2°57.063 3.1 343 6.5 100010 66
2008-04-09 07:40:56 51°17.792 2°57.069 2.8 279 6.5 100010 66
2008-04-09 07:41:01 51°17.798 2°57.074 2.5 345 6.5 100020 66
2008-04-09 07:41:06 51°17.803 2°57.079 2.5 281 6.5 100020 66
2008-04-09 07:41:11 51°17.809 2°57.084 2.8 345 6.6 100010 66
2008-04-09 07:41:16 51°17.814 2°57.088 2.7 348 6.6 100010 66
2008-04-09 07:41:21 51°17.818 2°57.093 2.1 348 6.6 100010 66
2008-04-09 07:41:26 51°17.822 2°57.097 2.3 348 6.6 100010 66
2008-04-09 07:41:31 51°17.826 2°57.101 2.3 348 6.6 100020 66
2008-04-09 07:41:36 51°17.83 2°57.105 2.1 278 6.6 100020 66
2008-04-09 07:41:41 51°17.833 2°57.108 2 349 6.6 100020 66
2008-04-09 07:41:46 51°17.837 2°57.111 2 354 6.6 100020 66
2008-04-09 07:41:51 51°17.84 2°57.115 1.7 349 6.6 100010 65
2008-04-09 07:41:56 51°17.843 2°57.117 2 353 6.6 100010 65
2008-04-09 07:42:01 51°17.846 2°57.12 1.5 349 6.6 100020 65
2008-04-09 07:42:06 51°17.849 2°57.123 1.9 352 6.6 100020 65
2008-04-09 07:42:11 51°17.852 2°57.126 2 349 6.6 100020 65
2008-04-09 07:42:16 51°17.855 2°57.129 2 354 6.6 100020 65
2008-04-09 07:42:21 51°17.858 2°57.132 1.8 349 6.5 100010 65
2008-04-09 07:42:26 51°17.862 2°57.135 1.6 351 6.5 100010 65
2008-04-09 07:42:31 51°17.865 2°57.138 1.8 353 6.5 100020 65
2008-04-09 07:42:36 51°17.868 2°57.141 1.9 351 6.5 100020 65
2008-04-09 07:42:41 51°17.872 2°57.143 2 347 6.5 100010 65
2008-04-09 07:42:46 51°17.875 2°57.145 1.7 351 6.5 100010 65
2008-04-09 07:42:51 51°17.879 2°57.148 2.1 347 6.5 100020 65
2008-04-09 07:42:56 51°17.883 2°57.15 2.2 351 6.5 100020 65
2008-04-09 07:43:01 51°17.887 2°57.153 2.1 351 6.5 100010 65
2008-04-09 07:43:06 51°17.892 2°57.156 1.9 279 6.5 100010 65
2008-04-09 07:43:11 51°17.896 2°57.159 1.9 351 6.5 100020 65
2008-04-09 07:43:16 51°17.9 2°57.162 1.9 281 6.5 100020 65
2008-04-09 07:43:21 51°17.905 2°57.165 2.2 348 6.5 100010 66
2008-04-09 07:43:26 51°17.909 2°57.168 1.9 278 6.5 100010 66
2008-04-09 07:43:31 51°17.914 2°57.171 2.2 347 6.5 100020 66
2008-04-09 07:43:36 51°17.919 2°57.174 2.2 286 6.5 100020 66
2008-04-09 07:43:41 51°17.924 2°57.177 2.2 346 6.4 100010 66
2008-04-09 07:43:46 51°17.929 2°57.181 2.3 278 6.4 100010 66
2008-04-09 07:43:51 51°17.934 2°57.184 2.2 347 6.4 100010 66
2008-04-09 07:43:56 51°17.939 2°57.188 2.3 280 6.4 100010 66
2008-04-09 07:44:01 51°17.944 2°57.191 1.1 346 6.4 100010 66
2008-04-09 07:44:06 51°17.949 2°57.194 2 344 6.4 100010 66
2008-04-09 07:44:11 51°17.954 2°57.197 2 347 6.4 100010 66
2008-04-09 07:44:16 51°17.959 2°57.201 2.3 285 6.4 100010 66
2008-04-09 07:44:21 51°17.964 2°57.205 2.4 346 6.4 100010 66
2008-04-09 07:44:26 51°17.969 2°57.209 2 285 6.4 100010 66
2008-04-09 07:44:31 51°17.974 2°57.213 2 343 6.4 100010 66
2008-04-09 07:44:36 51°17.979 2°57.218 2.4 280 6.4 100010 66
2008-04-09 07:44:41 51°17.984 2°57.223 2.8 345 6.4 100020 66
2008-04-09 07:44:46 51°17.989 2°57.23 3.2 282 6.4 100020 66
2008-04-09 07:44:51 51°17.994 2°57.237 3.4 342 6.3 100010 66
2008-04-09 07:44:56 51°17.999 2°57.245 3.6 282 6.3 100010 66
2008-04-09 07:45:01 51°18.005 2°57.253 3 341 6.3 100010 67
2008-04-09 07:45:06 51°18.01 2°57.262 3.9 279 6.3 100010 67
2008-04-09 07:45:11 51°18.017 2°57.27 3.4 341 6.3 100010 67
2008-04-09 07:45:16 51°18.023 2°57.279 3.2 280 6.3 100010 67
2008-04-09 07:45:21 51°18.03 2°57.287 3.6 339 6.3 100010 67
2008-04-09 07:45:26 51°18.037 2°57.294 3.6 281 6.3 100010 67
2008-04-09 07:45:31 51°18.045 2°57.301 3.6 339 6.3 100010 67
2008-04-09 07:45:36 51°18.053 2°57.307 3.7 -999 6.3 100010 67
2008-04-09 07:45:41 51°18.062 2°57.313 3.1 339 6.3 100010 67
2008-04-09 07:45:46 51°18.07 2°57.317 3.3 286 6.3 100010 67
2008-04-09 07:45:51 51°18.08 2°57.322 3.6 339 6.3 100010 67
2008-04-09 07:45:56 51°18.089 2°57.326 3.1 280 6.3 100010 67
2008-04-09 07:46:01 51°18.097 2°57.332 3.2 339 6.3 100010 67
2008-04-09 07:46:06 51°18.104 2°57.34 3.5 280 6.3 100010 67
2008-04-09 07:46:11 51°18.109 2°57.349 3.9 343 6.3 100010 67
2008-04-09 07:46:16 51°18.113 2°57.36 4.1 286 6.3 100010 67
2008-04-09 07:46:21 51°18.117 2°57.371 3.9 339 6.3 100010 68
2008-04-09 07:46:26 51°18.12 2°57.383 4.3 281 6.3 100010 68
2008-04-09 07:46:31 51°18.123 2°57.395 4 341 6.3 100010 68
2008-04-09 07:46:36 51°18.125 2°57.405 3.6 -999 6.3 100010 68
2008-04-09 07:46:41 51°18.128 2°57.416 3.1 343 6.3 100010 68
2008-04-09 07:46:46 51°18.129 2°57.425 3.1 280 6.3 100010 68
2008-04-09 07:46:51 51°18.13 2°57.433 3.3 344 6.3 100010 68
2008-04-09 07:46:56 51°18.131 2°57.441 2.6 279 6.3 100010 68
2008-04-09 07:47:01 51°18.132 2°57.447 2.8 343 6.3 100010 68
2008-04-09 07:47:06 51°18.131 2°57.453 2.4 282 6.3 100010 68
2008-04-09 07:47:11 51°18.131 2°57.459 2.4 346 6.3 100010 69
2008-04-09 07:47:16 51°18.13 2°57.463 2.2 280 6.3 100010 69
2008-04-09 07:47:21 51°18.129 2°57.466 2.2 350 6.4 100010 68
2008-04-09 07:47:26 51°18.127 2°57.469 2.3 349 6.4 100010 68
2008-04-09 07:47:31 51°18.125 2°57.471 2.1 349 6.4 100010 68
2008-04-09 07:47:36 51°18.123 2°57.471 1.8 -999 6.4 100010 68
2008-04-09 07:47:41 51°18.121 2°57.472 1.6 344 6.4 100010 68
2008-04-09 07:47:46 51°18.12 2°57.471 1.4 281 6.4 100010 68
2008-04-09 07:47:51 51°18.118 2°57.47 1.5 346 6.4 100010 68
2008-04-09 07:47:56 51°18.116 2°57.469 1.6 346 6.4 100010 68
2008-04-09 07:48:01 51°18.114 2°57.468 1.6 346 6.4 100020 68
2008-04-09 07:48:06 51°18.112 2°57.466 1.7 283 6.4 100020 68
2008-04-09 07:48:11 51°18.11 2°57.465 1.5 345 6.4 100010 68
2008-04-09 07:48:16 51°18.107 2°57.463 1.7 282 6.4 100010 68
2008-04-09 07:48:21 51°18.105 2°57.461 1.7 344 6.4 100010 68
2008-04-09 07:48:26 51°18.103 2°57.459 1.6 280 6.4 100010 68
2008-04-09 07:48:31 51°18.101 2°57.458 1.6 344 6.4 100010 68
2008-04-09 07:48:36 51°18.099 2°57.456 1.8 282 6.4 100010 68
2008-04-09 07:48:41 51°18.096 2°57.453 1.7 342 6.4 100020 68
2008-04-09 07:48:46 51°18.094 2°57.451 1.8 282 6.4 100020 68
2008-04-09 07:48:51 51°18.092 2°57.449 1.6 343 6.4 100020 68
2008-04-09 07:48:56 51°18.09 2°57.447 1.6 283 6.4 100020 68
2008-04-09 07:49:01 51°18.088 2°57.444 1.7 343 6.4 100010 68
2008-04-09 07:49:06 51°18.085 2°57.442 1.8 285 6.4 100010 68
2008-04-09 07:49:11 51°18.083 2°57.44 1.8 339 6.4 100010 68
2008-04-09 07:49:16 51°18.081 2°57.437 1.8 282 6.4 100010 68
2008-04-09 07:49:21 51°18.079 2°57.435 1.6 341 6.4 100020 68
2008-04-09 07:49:26 51°18.077 2°57.432 1.8 282 6.4 100020 68
2008-04-09 07:49:31 51°18.075 2°57.429 1.7 339 6.4 100020 68
2008-04-09 07:49:36 51°18.072 2°57.427 1.6 -999 6.4 100020 68
2008-04-09 07:49:41 51°18.07 2°57.424 1.5 341 6.4 100020 68
2008-04-09 07:49:46 51°18.068 2°57.422 1.8 279 6.4 100020 68
2008-04-09 07:49:51 51°18.066 2°57.419 1.6 339 6.4 100020 69
2008-04-09 07:49:56 51°18.064 2°57.416 1.7 287 6.4 100020 69
2008-04-09 07:50:01 51°18.062 2°57.413 1.8 340 6.4 100020 69
2008-04-09 07:50:06 51°18.06 2°57.411 1.8 280 6.4 100020 69
2008-04-09 07:50:11 51°18.058 2°57.408 1.5 340 6.5 100010 69
2008-04-09 07:50:16 51°18.056 2°57.405 1.7 280 6.5 100010 69
2008-04-09 07:50:21 51°18.054 2°57.402 1.6 339 6.5 100010 69
2008-04-09 07:50:26 51°18.051 2°57.399 1.7 279 6.5 100010 69
2008-04-09 07:50:31 51°18.049 2°57.396 1.5 342 6.5 100010 69
2008-04-09 07:50:36 51°18.048 2°57.394 1.6 -999 6.5 100010 69
2008-04-09 07:50:41 51°18.045 2°57.391 1.5 343 6.5 100010 69
2008-04-09 07:50:46 51°18.043 2°57.388 1.6 285 6.5 100010 69
2008-04-09 07:50:51 51°18.042 2°57.384 1.7 344 6.5 100010 69
2008-04-09 07:50:56 51°18.04 2°57.381 1.5 285 6.5 100010 69
2008-04-09 07:51:01 51°18.038 2°57.378 1.6 337 6.5 100010 69
2008-04-09 07:51:06 51°18.036 2°57.375 1.6 285 6.5 100010 69
2008-04-09 07:51:11 51°18.034 2°57.372 1.6 339 6.5 100010 69
2008-04-09 07:51:16 51°18.032 2°57.369 1.6 285 6.5 100010 69
2008-04-09 07:51:21 51°18.03 2°57.366 1.5 339 6.5 100010 68
2008-04-09 07:51:26 51°18.028 2°57.363 1.7 281 6.5 100010 68
2008-04-09 07:51:31 51°18.026 2°57.36 1.7 338 6.6 100020 68
2008-04-09 07:51:36 51°18.025 2°57.357 1.6 -999 6.6 100020 68
2008-04-09 07:51:41 51°18.023 2°57.354 1.6 340 6.6 100010 68
2008-04-09 07:51:46 51°18.021 2°57.351 1.8 282 6.6 100010 68
2008-04-09 07:51:51 51°18.019 2°57.348 1.7 341 6.6 100020 68
2008-04-09 07:51:56 51°18.017 2°57.345 1.8 278 6.6 100020 68
2008-04-09 07:52:01 51°18.016 2°57.342 1.5 340 6.6 100010 68
2008-04-09 07:52:06 51°18.014 2°57.339 1.6 278 6.6 100010 68
2008-04-09 07:52:11 51°18.012 2°57.336 1.9 342 6.6 100020 68
2008-04-09 07:52:16 51°18.01 2°57.332 1.9 284 6.6 100020 68
2008-04-09 07:52:21 51°18.009 2°57.329 1.9 340 6.6 100010 68
2008-04-09 07:52:26 51°18.007 2°57.326 1.6 285 6.6 100010 68
2008-04-09 07:52:31 51°18.005 2°57.323 1.5 338 6.6 100020 68
2008-04-09 07:52:36 51°18.003 2°57.32 1.6 -999 6.6 100020 68
2008-04-09 07:52:41 51°18.002 2°57.317 1.6 337 6.6 100020 68
2008-04-09 07:52:46 51°18 2°57.313 1.7 282 6.6 100020 68
2008-04-09 07:52:51 51°17.998 2°57.31 1.6 337 6.7 100010 68
2008-04-09 07:52:56 51°17.997 2°57.307 1.9 279 6.7 100010 68
2008-04-09 07:53:01 51°17.995 2°57.303 1.7 336 6.7 100020 68
2008-04-09 07:53:06 51°17.993 2°57.3 1.5 281 6.7 100020 68
2008-04-09 07:53:11 51°17.992 2°57.297 1.5 338 6.7 100010 68
2008-04-09 07:53:16 51°17.99 2°57.293 1.4 286 6.7 100010 68
2008-04-09 07:53:21 51°17.988 2°57.29 1.6 338 6.7 100020 68
2008-04-09 07:53:26 51°17.987 2°57.287 1.6 337 6.7 100020 68
2008-04-09 07:53:31 51°17.985 2°57.284 1.3 337 6.7 100020 68
2008-04-09 07:53:36 51°17.983 2°57.28 1.4 278 6.7 100020 68
2008-04-09 07:53:41 51°17.982 2°57.277 1.5 341 6.7 100020 68
2008-04-09 07:53:46 51°17.98 2°57.273 1.8 282 6.7 100020 68
2008-04-09 07:53:51 51°17.979 2°57.27 1.8 339 6.7 100010 67
2008-04-09 07:53:56 51°17.977 2°57.266 1.7 287 6.7 100010 67
2008-04-09 07:54:01 51°17.975 2°57.263 1.7 336 6.7 100010 67
2008-04-09 07:54:06 51°17.974 2°57.259 1.4 336 6.7 100010 67
2008-04-09 07:54:11 51°17.972 2°57.256 1.4 339 6.7 100020 67
2008-04-09 07:54:16 51°17.97 2°57.252 1.6 283 6.7 100020 67
2008-04-09 07:54:21 51°17.969 2°57.249 1.5 340 6.7 100010 67
2008-04-09 07:54:26 51°17.967 2°57.246 1.4 337 6.7 100010 67
2008-04-09 07:54:31 51°17.966 2°57.243 1.8 338 6.7 100010 67
2008-04-09 07:54:36 51°17.964 2°57.239 1.9 288 6.7 100010 67
2008-04-09 07:54:41 51°17.962 2°57.236 1.7 338 6.7 100010 67
2008-04-09 07:54:46 51°17.96 2°57.234 1.6 284 6.7 100010 67
2008-04-09 07:54:51 51°17.958 2°57.231 1.9 340 6.7 100010 67
2008-04-09 07:54:57 51°17.955 2°57.228 1.9 282 6.7 100010 67
2008-04-09 07:55:01 51°17.954 2°57.227 1.8 339 6.7 100020 67
2008-04-09 07:55:06 51°17.951 2°57.225 2.1 279 6.7 100020 67
2008-04-09 07:55:11 51°17.948 2°57.225 2.2 342 6.7 100020 66
2008-04-09 07:55:16 51°17.946 2°57.226 2.7 343 6.7 100020 66
2008-04-09 07:55:21 51°17.943 2°57.228 2.5 346 6.7 100010 66
2008-04-09 07:55:26 51°17.941 2°57.231 2.8 345 6.7 100010 66
2008-04-09 07:55:31 51°17.939 2°57.235 2.3 347 6.7 100010 66
2008-04-09 07:55:36 51°17.939 2°57.239 2.3 350 6.7 100010 66
2008-04-09 07:55:41 51°17.938 2°57.244 2.5 347 6.7 100020 66
2008-04-09 07:55:46 51°17.939 2°57.249 2.3 348 6.7 100020 66
2008-04-09 07:55:51 51°17.94 2°57.253 2.2 351 6.7 100010 66
2008-04-09 07:55:56 51°17.942 2°57.256 2 353 6.7 100010 66
2008-04-09 07:56:01 51°17.944 2°57.259 2.1 354 6.6 100010 66
2008-04-09 07:56:06 51°17.946 2°57.261 1.9 354 6.6 100010 66
2008-04-09 07:56:11 51°17.949 2°57.264 2 355 6.6 100010 66
2008-04-09 07:56:16 51°17.951 2°57.266 2 356 6.6 100010 66
2008-04-09 07:56:21 51°17.953 2°57.268 2 353 6.6 100010 66
2008-04-09 07:56:26 51°17.956 2°57.271 2.1 354 6.6 100010 66
2008-04-09 07:56:31 51°17.959 2°57.275 2.3 352 6.6 100010 66
2008-04-09 07:56:36 51°17.961 2°57.279 2.7 349 6.6 100010 66
2008-04-09 07:56:41 51°17.963 2°57.284 2.9 349 6.6 100020 66
2008-04-09 07:56:46 51°17.964 2°57.289 2.9 348 6.6 100020 66
2008-04-09 07:56:51 51°17.966 2°57.295 2.8 349 6.5 100020 66
2008-04-09 07:56:56 51°17.967 2°57.302 2.5 283 6.5 100020 66
2008-04-09 07:57:01 51°17.969 2°57.309 2.7 347 6.5 100010 67
2008-04-09 07:57:06 51°17.97 2°57.315 3.2 280 6.5 100010 67
2008-04-09 07:57:11 51°17.971 2°57.322 2.9 344 6.5 100010 67
2008-04-09 07:57:16 51°17.972 2°57.329 2.7 282 6.5 100010 67
2008-04-09 07:57:21 51°17.972 2°57.335 2.6 345 6.5 100020 67
2008-04-09 07:57:26 51°17.973 2°57.341 2.6 346 6.5 100020 67
2008-04-09 07:57:31 51°17.972 2°57.347 2.6 346 6.5 100010 67
2008-04-09 07:57:36 51°17.972 2°57.353 2.8 279 6.5 100010 67
2008-04-09 07:57:41 51°17.972 2°57.358 2.5 346 6.4 100010 67
2008-04-09 07:57:46 51°17.971 2°57.363 3 280 6.4 100010 67
2008-04-09 07:57:51 51°17.97 2°57.368 2.9 343 6.4 100020 67
2008-04-09 07:57:56 51°17.969 2°57.373 2.8 281 6.4 100020 67
2008-04-09 07:58:02 51°17.968 2°57.379 2.8 346 6.4 100020 67
2008-04-09 07:58:06 51°17.967 2°57.384 2.9 346 6.4 100020 67
2008-04-09 07:58:11 51°17.966 2°57.389 2.9 345 6.4 100020 67
2008-04-09 07:58:16 51°17.964 2°57.394 3 280 6.4 100020 67
2008-04-09 07:58:21 51°17.963 2°57.4 2.8 345 6.4 100010 67
2008-04-09 07:58:26 51°17.961 2°57.406 3.3 343 6.4 100010 67
2008-04-09 07:58:31 51°17.96 2°57.412 2.9 345 6.4 100010 67
2008-04-09 07:58:36 51°17.959 2°57.418 2.9 281 6.4 100010 67
2008-04-09 07:58:41 51°17.958 2°57.425 3.1 343 6.3 100010 67
2008-04-09 07:58:46 51°17.956 2°57.431 2.8 344 6.3 100010 67
2008-04-09 07:58:51 51°17.955 2°57.438 2.7 343 6.3 100010 67
2008-04-09 07:58:56 51°17.954 2°57.444 3 286 6.3 100010 67
2008-04-09 07:59:01 51°17.952 2°57.451 3.4 342 6.3 100010 67
2008-04-09 07:59:06 51°17.951 2°57.458 3 287 6.3 100010 67
2008-04-09 07:59:11 51°17.95 2°57.465 3.4 342 6.3 100010 67
2008-04-09 07:59:16 51°17.949 2°57.471 3.2 286 6.3 100010 67
2008-04-09 07:59:21 51°17.947 2°57.478 3.2 342 6.3 100020 67
2008-04-09 07:59:26 51°17.946 2°57.485 2.8 281 6.3 100020 67
2008-04-09 07:59:31 51°17.944 2°57.492 2.8 340 6.3 100020 68
2008-04-09 07:59:36 51°17.943 2°57.499 3.4 281 6.3 100020 68
2008-04-09 07:59:41 51°17.941 2°57.507 2.8 343 6.3 100020 68
2008-04-09 07:59:46 51°17.94 2°57.514 3 285 6.3 100020 68
2008-04-09 07:59:51 51°17.938 2°57.521 3.3 343 6.3 100010 68
2008-04-09 07:59:56 51°17.937 2°57.528 3.4 286 6.3 100010 68
2008-04-09 08:00:01 51°17.935 2°57.535 2.9 342 6.3 100020 68
2008-04-09 08:00:06 51°17.933 2°57.542 2.9 342 6.3 100020 68
2008-04-09 08:00:11 51°17.932 2°57.549 2.8 342 6.4 100020 68
2008-04-09 08:00:16 51°17.931 2°57.556 3 280 6.4 100020 68
2008-04-09 08:00:21 51°17.93 2°57.563 3.4 345 6.4 100010 67
2008-04-09 08:00:26 51°17.929 2°57.57 3.4 280 6.4 100010 67
2008-04-09 08:00:31 51°17.928 2°57.577 3.3 344 6.4 100010 68
2008-04-09 08:00:36 51°17.928 2°57.584 3.3 278 6.4 100010 68
2008-04-09 08:00:41 51°17.928 2°57.591 3.3 345 6.4 100010 68
2008-04-09 08:00:46 51°17.928 2°57.598 2.6 345 6.4 100010 68
2008-04-09 08:00:51 51°17.928 2°57.605 2.7 344 6.4 100020 68
2008-04-09 08:00:56 51°17.928 2°57.611 2.6 347 6.4 100020 68
2008-04-09 08:01:01 51°17.928 2°57.618 2.5 345 6.4 100010 68
2008-04-09 08:01:06 51°17.928 2°57.624 2.8 349 6.4 100010 68
2008-04-09 08:01:11 51°17.929 2°57.63 2.9 349 6.4 100020 68
2008-04-09 08:01:16 51°17.931 2°57.636 2.5 349 6.4 100020 68
2008-04-09 08:01:21 51°17.932 2°57.642 2.6 347 6.4 100020 67
2008-04-09 08:01:26 51°17.934 2°57.648 2.9 279 6.4 100020 67
2008-04-09 08:01:31 51°17.936 2°57.653 2.4 351 6.4 100010 67
2008-04-09 08:01:36 51°17.938 2°57.659 2.4 280 6.4 100010 67
2008-04-09 08:01:41 51°17.94 2°57.664 2.5 345 6.4 100020 67
2008-04-09 08:01:46 51°17.943 2°57.669 2.7 349 6.4 100020 67
2008-04-09 08:01:51 51°17.945 2°57.674 2.3 350 6.4 100020 67
2008-04-09 08:01:56 51°17.948 2°57.679 2.6 347 6.4 100020 67
2008-04-09 08:02:01 51°17.951 2°57.684 2.6 346 6.4 100020 68
2008-04-09 08:02:06 51°17.954 2°57.689 2.7 280 6.4 100020 68
2008-04-09 08:02:11 51°17.956 2°57.694 2.3 344 6.4 100020 68
2008-04-09 08:02:16 51°17.958 2°57.7 2.9 282 6.4 100020 68
2008-04-09 08:02:21 51°17.961 2°57.705 3 342 6.4 100020 68
2008-04-09 08:02:26 51°17.964 2°57.711 2.7 343 6.4 100020 68
2008-04-09 08:02:31 51°17.966 2°57.716 2.7 344 6.3 100020 67
2008-04-09 08:02:36 51°17.969 2°57.722 2.4 285 6.3 100020 67
2008-04-09 08:02:41 51°17.972 2°57.727 2.6 345 6.3 100020 67
2008-04-09 08:02:46 51°17.974 2°57.733 2.4 345 6.3 100020 67
2008-04-09 08:02:51 51°17.977 2°57.738 2.5 347 6.3 100020 67
2008-04-09 08:02:56 51°17.979 2°57.744 2.5 285 6.3 100020 67
2008-04-09 08:03:01 51°17.982 2°57.75 2.6 344 6.3 100020 66
2008-04-09 08:03:06 51°17.984 2°57.755 1.5 343 6.3 100020 66
2008-04-09 08:03:11 51°17.987 2°57.761 2.7 346 6.3 100020 66
2008-04-09 08:03:16 51°17.99 2°57.766 2.3 279 6.3 100020 66
2008-04-09 08:03:21 51°17.992 2°57.772 2.5 346 6.3 100020 66
2008-04-09 08:03:26 51°17.995 2°57.778 2.5 280 6.3 100020 66
2008-04-09 08:03:31 51°17.997 2°57.783 2.9 348 6.3 100010 65
2008-04-09 08:03:36 51°18 2°57.789 2.7 286 6.3 100010 65
2008-04-09 08:03:41 51°18.002 2°57.795 2.5 344 6.3 100010 65
2008-04-09 08:03:46 51°18.005 2°57.8 2.8 278 6.3 100010 65
2008-04-09 08:03:51 51°18.007 2°57.806 2.4 344 6.3 100020 65
2008-04-09 08:03:57 51°18.01 2°57.813 2.2 279 6.3 100020 65
2008-04-09 08:04:01 51°18.012 2°57.817 2.4 343 6.3 100020 65
2008-04-09 08:04:06 51°18.015 2°57.823 2.7 285 6.3 100020 65
2008-04-09 08:04:11 51°18.017 2°57.828 2.9 344 6.3 100010 65
2008-04-09 08:04:16 51°18.02 2°57.834 2.5 345 6.3 100010 65
2008-04-09 08:04:21 51°18.022 2°57.84 2.6 345 6.3 100020 65
2008-04-09 08:04:26 51°18.025 2°57.846 3.1 281 6.3 100020 65
2008-04-09 08:04:31 51°18.028 2°57.851 2.7 346 6.3 100020 65
2008-04-09 08:04:36 51°18.03 2°57.857 2.7 281 6.3 100020 65
2008-04-09 08:04:41 51°18.033 2°57.863 2.6 347 6.3 100020 65
2008-04-09 08:04:46 51°18.035 2°57.868 2.9 346 6.3 100020 65
2008-04-09 08:04:51 51°18.038 2°57.874 2.8 346 6.3 100010 65
2008-04-09 08:04:56 51°18.041 2°57.88 2.6 284 6.3 100010 65
2008-04-09 08:05:01 51°18.043 2°57.885 2.7 343 6.3 100020 65
2008-04-09 08:05:06 51°18.046 2°57.891 2.4 345 6.3 100020 65
2008-04-09 08:05:11 51°18.048 2°57.897 2.6 347 6.3 100020 64
2008-04-09 08:05:16 51°18.051 2°57.903 2.6 347 6.3 100020 64
2008-04-09 08:05:21 51°18.054 2°57.908 2.6 347 6.3 100020 64
2008-04-09 08:05:26 51°18.056 2°57.914 2.7 344 6.3 100020 64
2008-04-09 08:05:31 51°18.059 2°57.919 2.7 347 6.3 100010 64
2008-04-09 08:05:36 51°18.062 2°57.925 2.4 348 6.3 100010 64
2008-04-09 08:05:41 51°18.064 2°57.931 3.1 343 6.3 100020 64
2008-04-09 08:05:46 51°18.067 2°57.937 2.9 281 6.3 100020 64
2008-04-09 08:05:51 51°18.07 2°57.942 2.9 347 6.3 100010 64
2008-04-09 08:05:56 51°18.072 2°57.948 2.7 344 6.3 100010 64
2008-04-09 08:06:01 51°18.075 2°57.954 2.6 343 6.3 100010 63
2008-04-09 08:06:06 51°18.078 2°57.96 2.6 281 6.3 100010 63
2008-04-09 08:06:11 51°18.081 2°57.965 2.8 345 6.3 100020 63
2008-04-09 08:06:16 51°18.083 2°57.971 2.8 279 6.3 100020 63
2008-04-09 08:06:21 51°18.086 2°57.977 2.6 346 6.3 100020 63
2008-04-09 08:06:26 51°18.088 2°57.983 2.6 285 6.3 100020 63
2008-04-09 08:06:31 51°18.091 2°57.988 2.3 343 6.3 100020 62
2008-04-09 08:06:37 51°18.094 2°57.995 2.3 279 6.3 100020 62
2008-04-09 08:06:41 51°18.096 2°58 2.4 342 6.3 100010 62
2008-04-09 08:06:46 51°18.099 2°58.006 2.9 344 6.3 100010 62
2008-04-09 08:06:51 51°18.101 2°58.011 2.4 343 6.3 100020 61
2008-04-09 08:06:56 51°18.104 2°58.017 2.8 282 6.3 100020 61
2008-04-09 08:07:01 51°18.107 2°58.023 2.7 344 6.3 100010 61
2008-04-09 08:07:06 51°18.109 2°58.029 2.7 280 6.3 100010 61
2008-04-09 08:07:11 51°18.112 2°58.034 2.4 347 6.3 100020 61
2008-04-09 08:07:17 51°18.115 2°58.041 2.7 281 6.3 100020 61
2008-04-09 08:07:22 51°18.118 2°58.047 2.5 345 6.3 100010 61
2008-04-09 08:07:26 51°18.12 2°58.052 2.1 346 6.3 100010 61
2008-04-09 08:07:31 51°18.122 2°58.057 2.5 344 6.3 100010 61
2008-04-09 08:07:36 51°18.125 2°58.063 2.5 -999 6.3 100010 61
2008-04-09 08:07:41 51°18.127 2°58.069 2.7 346 6.3 100010 61
2008-04-09 08:07:46 51°18.13 2°58.074 2.4 346 6.3 100010 61
2008-04-09 08:07:51 51°18.133 2°58.08 2.6 342 6.3 100010 61
2008-04-09 08:07:56 51°18.135 2°58.085 2.3 346 6.3 100010 61
2008-04-09 08:08:01 51°18.138 2°58.091 2.6 344 6.4 100010 61
2008-04-09 08:08:06 51°18.141 2°58.096 2.2 280 6.4 100010 61
2008-04-09 08:08:11 51°18.143 2°58.102 2.2 343 6.4 100020 61
2008-04-09 08:08:16 51°18.146 2°58.108 2.3 280 6.4 100020 61
2008-04-09 08:08:22 51°18.149 2°58.115 2.5 345 6.3 100020 60
2008-04-09 08:08:26 51°18.151 2°58.119 2.9 345 6.3 100020 60
2008-04-09 08:08:31 51°18.153 2°58.125 2.7 345 6.3 100020 60
2008-04-09 08:08:36 51°18.156 2°58.13 2.4 346 6.3 100020 60
2008-04-09 08:08:41 51°18.158 2°58.136 2.6 344 6.4 100010 60
2008-04-09 08:08:46 51°18.161 2°58.141 2.8 279 6.4 100010 60
2008-04-09 08:08:51 51°18.163 2°58.147 2.7 345 6.4 100010 60
2008-04-09 08:08:56 51°18.166 2°58.152 2.6 284 6.4 100010 60
2008-04-09 08:09:01 51°18.168 2°58.158 2.6 344 6.3 100020 59
2008-04-09 08:09:06 51°18.171 2°58.163 2.6 344 6.3 100020 59
2008-04-09 08:09:11 51°18.174 2°58.169 2.3 343 6.4 100010 59
2008-04-09 08:09:16 51°18.176 2°58.174 2.2 281 6.4 100010 59
2008-04-09 08:09:22 51°18.179 2°58.181 2.2 343 6.3 100020 59
2008-04-09 08:09:26 51°18.181 2°58.185 2.6 345 6.3 100020 59
2008-04-09 08:09:31 51°18.184 2°58.191 2.2 343 6.3 100010 59
2008-04-09 08:09:36 51°18.187 2°58.196 2.1 284 6.3 100010 59
2008-04-09 08:09:41 51°18.189 2°58.202 2.7 340 6.4 100020 59
2008-04-09 08:09:46 51°18.192 2°58.207 2.4 344 6.4 100020 59
2008-04-09 08:09:51 51°18.194 2°58.213 2.2 343 6.4 100010 59
2008-04-09 08:09:57 51°18.197 2°58.219 2.2 282 6.4 100010 59
2008-04-09 08:10:02 51°18.2 2°58.225 2.6 344 6.4 100010 60
2008-04-09 08:10:06 51°18.202 2°58.229 2.8 279 6.4 100010 60
2008-04-09 08:10:11 51°18.204 2°58.235 2.3 343 6.4 100020 60
2008-04-09 08:10:16 51°18.207 2°58.24 2.2 346 6.4 100020 60
2008-04-09 08:10:21 51°18.209 2°58.245 2.2 344 6.4 100020 60
2008-04-09 08:10:26 51°18.212 2°58.251 2.5 281 6.4 100020 60
2008-04-09 08:10:31 51°18.215 2°58.256 2.4 343 6.4 100010 60
2008-04-09 08:10:36 51°18.217 2°58.262 2.5 344 6.4 100010 60
2008-04-09 08:10:41 51°18.22 2°58.267 2.7 345 6.4 100010 60
2008-04-09 08:10:46 51°18.222 2°58.272 2.5 279 6.4 100010 60
2008-04-09 08:10:51 51°18.225 2°58.278 2.4 344 6.5 100010 60
2008-04-09 08:10:57 51°18.228 2°58.284 2.9 278 6.5 100010 60
2008-04-09 08:11:01 51°18.23 2°58.288 2.5 344 6.5 100010 61
2008-04-09 08:11:06 51°18.232 2°58.294 2.9 278 6.5 100010 61
2008-04-09 08:11:11 51°18.235 2°58.299 2.6 345 6.5 100010 60
2008-04-09 08:11:16 51°18.237 2°58.305 2.5 346 6.5 100010 60
2008-04-09 08:11:21 51°18.24 2°58.31 2.5 343 6.4 100010 60
2008-04-09 08:11:26 51°18.242 2°58.315 2.7 279 6.4 100010 60
2008-04-09 08:11:31 51°18.245 2°58.32 2.6 344 6.4 100010 59
2008-04-09 08:11:36 51°18.247 2°58.326 2.6 -999 6.4 100010 59
2008-04-09 08:11:42 51°18.25 2°58.332 2.3 345 6.5 100010 59
2008-04-09 08:11:46 51°18.252 2°58.337 2.6 344 6.5 100010 59
2008-04-09 08:11:51 51°18.255 2°58.342 2.3 347 6.5 100020 60
2008-04-09 08:11:56 51°18.257 2°58.347 2.7 282 6.5 100020 60
2008-04-09 08:12:01 51°18.26 2°58.352 2.7 346 6.5 100010 60
2008-04-09 08:12:06 51°18.262 2°58.358 2.8 345 6.5 100010 60
2008-04-09 08:12:11 51°18.265 2°58.363 2.6 347 6.5 100020 60
2008-04-09 08:12:16 51°18.267 2°58.368 2.5 278 6.5 100020 60
2008-04-09 08:12:21 51°18.27 2°58.373 2.4 347 6.5 100020 61
2008-04-09 08:12:26 51°18.272 2°58.379 2.3 280 6.5 100020 61
2008-04-09 08:12:31 51°18.275 2°58.384 2.3 346 6.5 100020 60
2008-04-09 08:12:36 51°18.278 2°58.389 2.2 346 6.5 100020 60
2008-04-09 08:12:41 51°18.28 2°58.394 2.1 344 6.5 100010 60
2008-04-09 08:12:46 51°18.283 2°58.4 2.7 281 6.5 100010 60
2008-04-09 08:12:51 51°18.285 2°58.405 2.4 346 6.5 100010 60
2008-04-09 08:12:56 51°18.288 2°58.41 2.7 285 6.5 100010 60
2008-04-09 08:13:01 51°18.291 2°58.415 2.7 345 6.5 100010 60
2008-04-09 08:13:06 51°18.293 2°58.421 2.6 284 6.5 100010 60
2008-04-09 08:13:11 51°18.295 2°58.426 2.2 344 6.5 100010 60
2008-04-09 08:13:16 51°18.298 2°58.431 2.3 284 6.5 100010 60
2008-04-09 08:13:21 51°18.3 2°58.436 2.3 346 6.5 100020 60
2008-04-09 08:13:26 51°18.303 2°58.442 2.3 346 6.5 100020 60
2008-04-09 08:13:31 51°18.305 2°58.447 2.3 345 6.5 100020 60
2008-04-09 08:13:36 51°18.308 2°58.452 2.4 -999 6.5 100020 60
2008-04-09 08:13:41 51°18.31 2°58.457 2.6 346 6.5 100010 59
2008-04-09 08:13:46 51°18.313 2°58.462 2.2 344 6.5 100010 59
2008-04-09 08:13:51 51°18.315 2°58.467 2.5 345 6.5 100020 59
2008-04-09 08:13:56 51°18.318 2°58.473 2.3 281 6.5 100020 59
2008-04-09 08:14:02 51°18.321 2°58.479 2.5 343 6.5 100020 59
2008-04-09 08:14:06 51°18.322 2°58.483 2.5 344 6.5 100020 59
2008-04-09 08:14:11 51°18.325 2°58.489 2.4 342 6.4 100020 59
2008-04-09 08:14:16 51°18.327 2°58.494 2.2 280 6.4 100020 59
2008-04-09 08:14:21 51°18.329 2°58.499 2.4 346 6.4 100020 59
2008-04-09 08:14:26 51°18.331 2°58.505 2.5 281 6.4 100020 59
2008-04-09 08:14:31 51°18.333 2°58.51 2.2 345 6.5 100020 59
2008-04-09 08:14:36 51°18.335 2°58.515 2.4 285 6.5 100020 59
2008-04-09 08:14:41 51°18.338 2°58.521 2.5 348 6.5 100020 59
2008-04-09 08:14:46 51°18.339 2°58.526 2.5 280 6.5 100020 59
2008-04-09 08:14:51 51°18.342 2°58.531 2.7 347 6.5 100020 59
2008-04-09 08:14:56 51°18.343 2°58.536 2.2 342 6.5 100020 59
2008-04-09 08:15:01 51°18.345 2°58.542 2.7 345 6.5 100020 59
2008-04-09 08:15:06 51°18.347 2°58.547 2.4 281 6.5 100020 59
2008-04-09 08:15:11 51°18.349 2°58.552 2.3 346 6.5 100020 59
2008-04-09 08:15:16 51°18.351 2°58.557 2.3 281 6.5 100020 59
2008-04-09 08:15:21 51°18.353 2°58.562 2.3 348 6.5 100020 59
2008-04-09 08:15:26 51°18.354 2°58.568 2.1 280 6.5 100020 59
2008-04-09 08:15:31 51°18.356 2°58.573 2.5 348 6.5 100010 59
2008-04-09 08:15:37 51°18.358 2°58.579 2.5 283 6.5 100010 59
2008-04-09 08:15:41 51°18.359 2°58.584 2.2 348 6.5 100020 59
2008-04-09 08:15:46 51°18.36 2°58.589 2.4 343 6.5 100020 59
2008-04-09 08:15:51 51°18.362 2°58.594 2.6 349 6.5 100020 59
2008-04-09 08:15:56 51°18.362 2°58.6 2.7 346 6.5 100020 59
2008-04-09 08:16:01 51°18.362 2°58.605 2.7 346 6.5 100010 59
2008-04-09 08:16:06 51°18.361 2°58.61 2.6 280 6.5 100010 59
2008-04-09 08:16:11 51°18.36 2°58.616 2.3 344 6.5 100010 60
2008-04-09 08:16:17 51°18.358 2°58.621 2.4 281 6.5 100010 60
2008-04-09 08:16:22 51°18.355 2°58.625 2.8 341 6.5 100010 59
2008-04-09 08:16:26 51°18.353 2°58.629 2.7 341 6.5 100010 59
2008-04-09 08:16:31 51°18.349 2°58.632 2.6 340 6.5 100020 60
2008-04-09 08:16:36 51°18.346 2°58.635 2.6 277 6.5 100020 60
2008-04-09 08:16:41 51°18.342 2°58.638 2.8 341 6.5 100020 60
2008-04-09 08:16:46 51°18.337 2°58.64 2.5 288 6.5 100020 60
2008-04-09 08:16:51 51°18.332 2°58.641 2.9 338 6.5 100020 60
2008-04-09 08:16:56 51°18.327 2°58.642 2.6 336 6.5 100020 60
2008-04-09 08:17:01 51°18.321 2°58.643 2.7 334 6.5 100010 60
2008-04-09 08:17:06 51°18.316 2°58.642 2.7 280 6.5 100010 60
2008-04-09 08:17:11 51°18.311 2°58.642 2.1 334 6.6 100010 60
2008-04-09 08:17:16 51°18.306 2°58.641 2.4 286 6.6 100010 60
2008-04-09 08:17:22 51°18.3 2°58.639 2.3 333 6.6 100010 60
2008-04-09 08:17:26 51°18.297 2°58.638 2.2 279 6.6 100010 60
2008-04-09 08:17:31 51°18.292 2°58.636 1.8 332 6.6 100010 60
2008-04-09 08:17:36 51°18.288 2°58.635 2 277 6.6 100010 60
2008-04-09 08:17:41 51°18.283 2°58.633 2 335 6.6 100010 60
2008-04-09 08:17:46 51°18.279 2°58.631 1.8 281 6.6 100010 60
2008-04-09 08:17:51 51°18.275 2°58.63 2.2 335 6.7 100020 60
2008-04-09 08:17:56 51°18.27 2°58.628 2.1 287 6.7 100020 60
2008-04-09 08:18:01 51°18.267 2°58.627 1.9 334 6.7 100010 60
2008-04-09 08:18:06 51°18.263 2°58.625 1.9 285 6.7 100010 60
2008-04-09 08:18:11 51°18.259 2°58.623 1.8 335 6.7 100010 60
2008-04-09 08:18:16 51°18.256 2°58.622 1.8 280 6.7 100010 60
2008-04-09 08:18:22 51°18.252 2°58.62 1.6 334 6.8 100010 60
2008-04-09 08:18:26 51°18.249 2°58.619 1.6 333 6.8 100010 60
2008-04-09 08:18:31 51°18.246 2°58.617 1.5 334 6.8 100010 60
2008-04-09 08:18:36 51°18.242 2°58.616 1.8 282 6.8 100010 60
2008-04-09 08:18:41 51°18.239 2°58.614 1.6 333 6.9 100010 59
2008-04-09 08:18:46 51°18.236 2°58.613 1.7 332 6.9 100010 59
2008-04-09 08:18:51 51°18.233 2°58.612 1.6 336 6.9 100010 59
2008-04-09 08:18:56 51°18.23 2°58.61 1.5 279 6.9 100010 59
2008-04-09 08:19:01 51°18.227 2°58.609 1.5 334 7 100010 59
2008-04-09 08:19:06 51°18.224 2°58.607 1.6 279 7 100010 59
2008-04-09 08:19:11 51°18.222 2°58.606 1.4 334 7 100010 59
2008-04-09 08:19:16 51°18.219 2°58.605 1.3 334 7 100010 59
2008-04-09 08:19:21 51°18.216 2°58.603 1.4 334 7 100020 59
2008-04-09 08:19:26 51°18.214 2°58.602 1.4 277 7 100020 59
2008-04-09 08:19:31 51°18.211 2°58.6 1.2 333 7 100010 59
2008-04-09 08:19:36 51°18.209 2°58.599 1.4 -999 7 100010 59
2008-04-09 08:19:41 51°18.206 2°58.598 1.1 336 7.1 100010 59
2008-04-09 08:19:46 51°18.204 2°58.596 1.3 283 7.1 100010 59
2008-04-09 08:19:51 51°18.202 2°58.595 1.3 338 7.1 100010 58
2008-04-09 08:19:56 51°18.2 2°58.594 1.1 337 7.1 100010 58
2008-04-09 08:20:01 51°18.197 2°58.592 1.3 337 7.1 100020 58
2008-04-09 08:20:06 51°18.195 2°58.591 1.2 281 7.1 100020 58
2008-04-09 08:20:11 51°18.193 2°58.59 1.4 337 7.1 100020 57
2008-04-09 08:20:16 51°18.191 2°58.588 1.4 286 7.1 100020 57
2008-04-09 08:20:21 51°18.189 2°58.587 1.3 337 7.2 100020 57
2008-04-09 08:20:26 51°18.187 2°58.586 1.4 337 7.2 100020 57
2008-04-09 08:20:31 51°18.185 2°58.585 1.4 337 7.2 100020 56
2008-04-09 08:20:36 51°18.182 2°58.584 1.5 287 7.2 100020 56
2008-04-09 08:20:41 51°18.18 2°58.583 1.5 336 7.2 100020 56
2008-04-09 08:20:46 51°18.177 2°58.582 1.4 287 7.2 100020 56
2008-04-09 08:20:51 51°18.174 2°58.581 1.4 332 7.2 100010 56
2008-04-09 08:20:56 51°18.171 2°58.581 1.8 277 7.2 100010 56
2008-04-09 08:21:01 51°18.168 2°58.58 1.7 330 7.2 100020 56
2008-04-09 08:21:06 51°18.164 2°58.579 2.2 330 7.2 100020 56
2008-04-09 08:21:11 51°18.159 2°58.578 1.9 329 7.2 100010 56
2008-04-09 08:21:17 51°18.154 2°58.576 2.5 285 7.2 100010 56
2008-04-09 08:21:22 51°18.148 2°58.574 2.5 325 7.2 100010 57
2008-04-09 08:21:26 51°18.144 2°58.572 2 326 7.2 100010 57
2008-04-09 08:21:31 51°18.139 2°58.569 2.1 323 7.2 100020 58
2008-04-09 08:21:36 51°18.133 2°58.565 2.2 -999 7.2 100020 58
2008-04-09 08:21:41 51°18.127 2°58.56 1.9 323 7.2 100010 59
2008-04-09 08:21:46 51°18.122 2°58.554 2.6 280 7.2 100010 59
2008-04-09 08:21:51 51°18.116 2°58.548 2.3 321 7.2 100010 59
2008-04-09 08:21:56 51°18.111 2°58.541 1.9 302 7.2 100010 59
2008-04-09 08:22:01 51°18.105 2°58.533 2.2 322 7.2 100010 58
2008-04-09 08:22:06 51°18.101 2°58.524 2.3 286 7.2 100010 58
2008-04-09 08:22:11 51°18.096 2°58.514 2.3 319 7.2 100010 58
2008-04-09 08:22:16 51°18.092 2°58.504 2.1 305 7.2 100010 58
2008-04-09 08:22:22 51°18.087 2°58.491 2 316 7.2 100020 57
2008-04-09 08:22:26 51°18.084 2°58.483 2.6 280 7.2 100020 57
2008-04-09 08:22:31 51°18.08 2°58.471 2.7 322 7.3 100020 57
2008-04-09 08:22:36 51°18.076 2°58.46 3 304 7.3 100020 57
2008-04-09 08:22:41 51°18.072 2°58.447 2.8 321 7.3 100020 57
2008-04-09 08:22:46 51°18.068 2°58.435 2.5 279 7.3 100020 57
2008-04-09 08:22:51 51°18.063 2°58.422 2.9 323 7.3 100010 57
2008-04-09 08:22:56 51°18.058 2°58.409 2.4 281 7.3 100010 57
2008-04-09 08:23:01 51°18.054 2°58.395 3 322 7.3 100010 56
2008-04-09 08:23:06 51°18.049 2°58.382 2.4 321 7.3 100010 56
2008-04-09 08:23:11 51°18.044 2°58.368 2.6 322 7.3 100010 56
2008-04-09 08:23:16 51°18.039 2°58.353 2.6 285 7.3 100010 56
2008-04-09 08:23:21 51°18.035 2°58.339 3.3 323 7.3 100010 55
2008-04-09 08:23:26 51°18.03 2°58.323 3.5 280 7.3 100010 55
2008-04-09 08:23:31 51°18.025 2°58.308 3.7 323 7.3 100010 55
2008-04-09 08:23:36 51°18.02 2°58.292 3.1 -999 7.3 100010 55
2008-04-09 08:23:41 51°18.015 2°58.275 4.2 323 7.3 100010 55
2008-04-09 08:23:46 51°18.009 2°58.257 4.2 323 7.3 100010 55
2008-04-09 08:23:51 51°18.003 2°58.239 4.3 325 7.3 100020 55
2008-04-09 08:23:57 51°17.997 2°58.217 4.3 287 7.3 100020 55
2008-04-09 08:24:02 51°17.991 2°58.198 3.8 324 7.3 100010 55
2008-04-09 08:24:06 51°17.986 2°58.182 4.8 287 7.3 100010 55
2008-04-09 08:24:11 51°17.98 2°58.162 4 325 7.3 100020 55
2008-04-09 08:24:16 51°17.973 2°58.142 4 284 7.3 100020 55
2008-04-09 08:24:21 51°17.967 2°58.121 5.1 327 7.3 100010 55
2008-04-09 08:24:26 51°17.961 2°58.1 4.1 287 7.3 100010 55
2008-04-09 08:24:31 51°17.954 2°58.079 4.9 326 7.3 100020 55
2008-04-09 08:24:36 51°17.947 2°58.058 4.2 325 7.3 100020 55
2008-04-09 08:24:41 51°17.941 2°58.037 4.2 326 7.3 100020 55
2008-04-09 08:24:46 51°17.934 2°58.015 5.3 286 7.3 100020 55
2008-04-09 08:24:51 51°17.927 2°57.994 4.7 326 7.3 100020 56
2008-04-09 08:24:56 51°17.92 2°57.972 5.3 280 7.3 100020 56
2008-04-09 08:25:02 51°17.911 2°57.946 4.6 325 7.3 100010 56
2008-04-09 08:25:06 51°17.905 2°57.929 5.4 326 7.3 100010 56
2008-04-09 08:25:11 51°17.898 2°57.907 5.5 325 7.3 100020 56
2008-04-09 08:25:16 51°17.891 2°57.885 5.7 279 7.3 100020 56
2008-04-09 08:25:21 51°17.883 2°57.863 4.5 327 7.3 100020 56
2008-04-09 08:25:26 51°17.876 2°57.84 4.7 327 7.3 100020 56
2008-04-09 08:25:31 51°17.869 2°57.818 5.8 326 7.2 100020 56
2008-04-09 08:25:36 51°17.862 2°57.795 5.6 -999 7.2 100020 56
2008-04-09 08:25:42 51°17.854 2°57.767 4.6 325 7.3 100020 56
2008-04-09 08:25:46 51°17.848 2°57.749 5.8 327 7.3 100020 56
2008-04-09 08:25:51 51°17.841 2°57.725 5 326 7.2 100020 56
2008-04-09 08:25:56 51°17.833 2°57.701 5 285 7.2 100020 56
2008-04-09 08:26:01 51°17.826 2°57.677 5.1 327 7.2 100020 56
2008-04-09 08:26:06 51°17.817 2°57.652 6.3 278 7.2 100020 56
2008-04-09 08:26:11 51°17.809 2°57.627 6.5 326 7.2 100020 56
2008-04-09 08:26:16 51°17.801 2°57.602 5.7 327 7.2 100020 56
2008-04-09 08:26:21 51°17.792 2°57.576 5.7 327 7.2 100020 56
2008-04-09 08:26:26 51°17.783 2°57.551 6.7 280 7.2 100020 56
2008-04-09 08:26:31 51°17.774 2°57.524 6.9 327 7.2 100020 56
2008-04-09 08:26:37 51°17.764 2°57.493 6.9 278 7.2 100020 56
2008-04-09 08:26:41 51°17.757 2°57.472 6.9 328 7.2 100020 57
2008-04-09 08:26:46 51°17.748 2°57.445 5.6 327 7.2 100020 57
2008-04-09 08:26:51 51°17.739 2°57.419 5.7 328 7.2 100020 57
2008-04-09 08:26:56 51°17.729 2°57.392 7.1 327 7.2 100020 57
2008-04-09 08:27:01 51°17.72 2°57.366 6.9 327 7.1 100020 57
2008-04-09 08:27:06 51°17.711 2°57.339 7 285 7.1 100020 57
2008-04-09 08:27:11 51°17.702 2°57.312 5.5 327 7.1 100020 57
2008-04-09 08:27:17 51°17.691 2°57.28 5.9 327 7.1 100020 57
2008-04-09 08:27:22 51°17.683 2°57.253 6.9 327 7.1 100020 56
2008-04-09 08:27:26 51°17.675 2°57.232 6 328 7.1 100020 56
2008-04-09 08:27:31 51°17.666 2°57.205 6.8 327 7.1 100020 57
2008-04-09 08:27:36 51°17.658 2°57.178 6.9 -999 7.1 100020 57
2008-04-09 08:27:41 51°17.649 2°57.151 5.8 328 7.1 100020 56
2008-04-09 08:27:46 51°17.64 2°57.124 5.6 285 7.1 100020 56
2008-04-09 08:27:51 51°17.631 2°57.098 5.9 327 7 100020 56
2008-04-09 08:27:56 51°17.622 2°57.071 5.7 302 7 100020 56
2008-04-09 08:28:01 51°17.613 2°57.044 5.8 327 7 100020 56
2008-04-09 08:28:06 51°17.604 2°57.018 7.2 326 7 100020 56
2008-04-09 08:28:11 51°17.595 2°56.991 7.1 326 7 100020 56
2008-04-09 08:28:16 51°17.586 2°56.964 6.8 286 7 100020 56
2008-04-09 08:28:22 51°17.575 2°56.932 5.8 327 7 100020 57
2008-04-09 08:28:26 51°17.568 2°56.91 5.7 327 7 100020 57
2008-04-09 08:28:31 51°17.559 2°56.883 6.8 328 7 100020 57
2008-04-09 08:28:36 51°17.55 2°56.856 5.9 280 7 100020 57
2008-04-09 08:28:41 51°17.541 2°56.829 5.9 327 7 100020 57
2008-04-09 08:28:46 51°17.532 2°56.802 7 279 7 100020 57
2008-04-09 08:28:51 51°17.523 2°56.775 6 326 7 100020 57
2008-04-09 08:28:56 51°17.514 2°56.748 5.6 327 7 100020 57
2008-04-09 08:29:01 51°17.505 2°56.722 7.1 327 7 100020 57
2008-04-09 08:29:06 51°17.496 2°56.694 7 287 7 100020 57
2008-04-09 08:29:11 51°17.487 2°56.668 5.8 327 7 100020 58
2008-04-09 08:29:17 51°17.477 2°56.635 7.3 284 7 100020 58
2008-04-09 08:29:22 51°17.468 2°56.608 7.4 327 6.9 100020 57
2008-04-09 08:29:26 51°17.461 2°56.587 5.6 302 6.9 100020 57
2008-04-09 08:29:31 51°17.452 2°56.559 5.8 327 6.9 100020 58